Weather reports worldwide

Advertisment
Coria/Tabacoa, Spain (8251): temperature & dewpoint: 03.08.2020 22:00:00 - 09.08.2020 22:00:00 (CEST)Coria/Tabacoa, Spain (8251): wind speed & gusts: 03.08.2020 22:00:00 - 09.08.2020 22:00:00 (CEST)Coria/Tabacoa, Spain (8251): wind direction: 03.08.2020 22:00:00 - 09.08.2020 22:00:00 (CEST)Coria/Tabacoa, Spain (8251): reduced air pressure: 03.08.2020 22:00:00 - 09.08.2020 22:00:00 (CEST)Coria/Tabacoa, Spain (8251): visibility: 03.08.2020 22:00:00 - 09.08.2020 22:00:00 (CEST)Coria/Tabacoa, Spain (8251): sunshine duration: 03.08.2020 22:00:00 - 09.08.2020 22:00:00 (CEST)Coria/Tabacoa, Spain (8251): precipitation: 03.08.2020 22:00:00 - 09.08.2020 22:00:00 (CEST)
Date & Time tt [°C] td [°C] ff [km/h] ff [kn] fx [km/h] fx [kn] dd ppp [hPa] vv [km] sd [min] rr [mm]
09.08.2020 22:00:00 - - - - - - - - - - -
09.08.2020 21:00:00 32,8 5,3 14 7 29 15 WSW 1009,8 20 0 0,0
09.08.2020 20:00:00 34,7 7,7 16 9 27 14 W 1009,4 20 0 -
09.08.2020 19:00:00 35,4 9,0 14 7 27 14 WSW 1009,5 20 0 0,0
09.08.2020 18:00:00 37,1 8,0 9 5 24 13 SW 1009,9 20 0 0,0
09.08.2020 17:00:00 36,8 7,7 17 9 27 14 W 1010,5 20 0 0,0
09.08.2020 16:00:00 35,7 10,0 14 8 31 17 WSW 1011,3 20 0 0,0
09.08.2020 15:00:00 35,3 9,7 14 8 27 15 WSW 1012,2 20 0 0,0
09.08.2020 14:00:00 34,6 8,4 14 7 27 15 SW 1013,0 20 0 -
09.08.2020 13:00:00 32,2 9,0 11 6 22 12 WSW 1013,7 20 0 0,0
09.08.2020 12:00:00 30,1 9,6 6 4 16 9 SW 1014,5 20 0 0,0
09.08.2020 11:00:00 27,7 12,1 4 2 12 7 SSW 1014,7 20 0 0,0
09.08.2020 10:00:00 23,5 13,1 8 4 12 6 W 1015,4 20 0 0,0
09.08.2020 09:00:00 23,4 13,0 1 1 6 3 N 1015,3 20 0 0,0
09.08.2020 08:00:00 21,2 12,3 1 1 6 3 S 1015,1 20 0 -
09.08.2020 07:00:00 22,0 12,5 4 2 12 6 NNW 1014,8 20 0 0,0
09.08.2020 06:00:00 22,4 13,0 6 4 15 8 NNW 1014,6 20 0 0,0
09.08.2020 05:00:00 24,1 11,8 4 2 7 4 NW 1014,3 20 0 0,0
09.08.2020 04:00:00 24,9 11,8 3 2 6 3 W 1014,4 20 0 0,0
09.08.2020 03:00:00 25,8 12,2 5 3 10 5 WNW 1014,5 20 0 0,0
09.08.2020 02:00:00 26,6 12,6 8 4 16 9 NW 1014,7 20 0 -
09.08.2020 01:00:00 27,7 12,1 8 4 16 9 W 1014,5 20 0 0,0
09.08.2020 00:00:00 28,8 10,9 12 7 20 11 WSW 1014,6 20 0 0,0
08.08.2020 23:00:00 30,0 11,0 8 4 21 11 W 1014,2 20 0 0,0
08.08.2020 22:00:00 31,6 11,9 9 5 20 11 W 1013,1 20 0 0,0
08.08.2020 21:00:00 35,9 10,9 6 3 16 8 SSW 1012,2 20 0 0,0
08.08.2020 20:00:00 37,7 10,9 8 4 23 12 SW 1012,1 20 0 -
08.08.2020 19:00:00 38,0 10,4 11 6 28 15 S 1012,7 20 0 0,0
08.08.2020 18:00:00 38,4 9,9 12 6 25 14 SSW 1013,2 20 0 0,0
08.08.2020 17:00:00 36,5 10,6 11 6 24 13 WSW 1013,9 20 0 0,0
08.08.2020 16:00:00 33,9 12,8 9 5 24 13 W 1014,9 19 0 0,0
08.08.2020 15:00:00 32,2 13,0 9 5 22 12 W 1015,6 20 0 0,0
08.08.2020 14:00:00 31,7 15,6 11 6 20 11 W 1016,4 20 0 -
08.08.2020 13:00:00 33,7 14,7 6 3 19 10 SE 1016,4 20 0 0,0
08.08.2020 12:00:00 31,7 14,3 7 4 20 11 SE 1016,9 20 0 0,0
08.08.2020 11:00:00 29,3 13,9 6 4 13 7 SE 1017,6 20 0 0,0
08.08.2020 10:00:00 27,1 13,5 3 2 8 5 S 1017,7 20 0 0,0
08.08.2020 09:00:00 24,6 14,0 2 1 5 3 SE 1017,9 20 0 0,0
08.08.2020 08:00:00 23,4 13,9 3 2 5 3 SSE 1017,3 20 0 -
08.08.2020 07:00:00 24,4 13,9 3 2 8 4 NW 1016,3 20 0 0,0
08.08.2020 06:00:00 25,1 13,4 1 1 5 3 W 1016,3 20 0 0,0
08.08.2020 05:00:00 26,3 12,0 5 3 12 6 SW 1016,1 20 0 0,0
08.08.2020 04:00:00 26,3 11,7 3 1 6 4 WNW 1016,1 20 0 0,0
08.08.2020 03:00:00 26,8 11,3 6 3 9 5 WNW 1016,0 20 0 0,0
08.08.2020 02:00:00 27,4 11,0 6 3 25 13 NW 1015,8 20 0 -
08.08.2020 01:00:00 29,6 10,6 12 6 22 12 NNW 1015,1 20 0 0,0
08.08.2020 00:00:00 30,5 9,9 8 4 15 8 NW 1014,7 20 0 0,0
07.08.2020 23:00:00 32,0 9,6 8 4 15 8 W 1014,0 20 0 0,0
07.08.2020 22:00:00 32,8 10,2 4 2 10 6 W 1013,1 20 0 0,0
07.08.2020 21:00:00 36,3 10,5 6 3 19 10 WSW 1012,2 20 0 0,0
07.08.2020 20:00:00 38,1 8,8 13 7 21 11 WSW 1011,8 20 0 -
07.08.2020 19:00:00 38,7 10,2 12 6 27 15 W 1011,9 20 0 0,0
07.08.2020 18:00:00 38,6 10,0 16 9 30 16 WSW 1012,3 20 0 0,0
07.08.2020 17:00:00 38,1 11,2 8 5 47 25 WNW 1012,8 20 0 0,0
07.08.2020 16:00:00 36,6 10,8 7 4 24 13 NNW 1013,6 20 0 0,0
07.08.2020 15:00:00 36,1 10,3 10 5 24 13 W 1014,2 20 0 0,0
07.08.2020 14:00:00 35,4 11,1 7 4 18 10 SSE 1014,7 20 0 -
07.08.2020 13:00:00 33,9 12,8 9 5 16 9 SSW 1015,0 20 0 0,0
07.08.2020 12:00:00 32,1 12,8 5 3 14 8 SW 1015,4 20 0 0,0
07.08.2020 11:00:00 29,4 14,0 4 2 14 8 WSW 1015,6 20 0 0,0
07.08.2020 10:00:00 27,3 14,3 3 2 7 4 WSW 1015,6 20 0 0,0
07.08.2020 09:00:00 25,8 14,2 2 1 6 3 W 1015,2 20 0 0,0
07.08.2020 08:00:00 24,4 14,2 4 2 8 4 NW 1014,6 20 0 -
07.08.2020 07:00:00 24,2 14,0 1 1 4 2 NE 1014,3 20 0 0,0
07.08.2020 06:00:00 25,4 13,6 0 0 8 5 N 1013,4 20 0 0,0
07.08.2020 05:00:00 26,2 12,6 3 1 6 3 WSW 1013,0 20 0 0,0
07.08.2020 04:00:00 26,9 11,3 3 2 15 8 WNW 1012,7 20 0 0,0
07.08.2020 03:00:00 27,8 11,8 10 5 16 9 NNW 1012,1 20 0 0,0
07.08.2020 02:00:00 27,5 11,1 8 4 13 7 W 1012,0 20 0 -
07.08.2020 01:00:00 29,7 8,7 4 2 7 4 NW 1011,5 20 0 0,0
07.08.2020 00:00:00 32,0 8,9 5 3 9 5 NW 1010,6 20 0 0,0
06.08.2020 23:00:00 34,2 8,0 5 3 10 5 WNW 1010,0 20 0 0,0
06.08.2020 22:00:00 34,8 7,7 5 3 10 5 NW 1009,2 20 0 0,0
06.08.2020 21:00:00 37,1 9,7 5 3 13 7 W 1008,6 20 0 0,0
06.08.2020 20:00:00 39,0 10,4 9 5 28 15 SW 1008,3 20 0 -
06.08.2020 19:00:00 40,2 7,6 11 6 30 16 SSW 1008,2 20 0 0,0
06.08.2020 18:00:00 40,7 9,0 11 6 27 15 SSW 1008,2 20 0 0,0
06.08.2020 17:00:00 40,4 8,8 11 6 34 18 S 1008,6 20 0 0,0
06.08.2020 16:00:00 40,2 8,7 17 9 34 18 SSE 1009,0 20 0 0,0
06.08.2020 15:00:00 39,2 11,3 12 7 27 15 ESE 1009,3 20 0 0,0
06.08.2020 14:00:00 37,7 12,3 15 8 31 17 E 1010,1 20 0 -
06.08.2020 13:00:00 35,9 12,2 16 9 34 18 E 1010,6 20 0 0,0
06.08.2020 12:00:00 34,0 12,3 18 10 38 21 E 1011,0 20 0 0,0
06.08.2020 11:00:00 31,3 12,6 25 14 39 21 E 1011,2 20 0 0,0
06.08.2020 10:00:00 29,2 11,2 22 12 40 22 E 1011,0 20 0 0,0
06.08.2020 09:00:00 26,8 8,7 19 10 32 17 E 1011,0 20 0 0,0
06.08.2020 08:00:00 22,2 9,3 9 5 15 8 E 1010,9 20 0 -
06.08.2020 07:00:00 23,3 8,1 3 2 7 4 ENE 1009,9 20 0 0,0
06.08.2020 06:00:00 24,6 7,7 5 3 14 7 ENE 1009,4 20 0 0,0
06.08.2020 05:00:00 26,0 8,0 10 6 16 9 ENE 1009,4 20 0 0,0
06.08.2020 04:00:00 26,4 7,8 6 3 11 6 E 1009,1 20 0 0,0
06.08.2020 03:00:00 27,8 6,5 4 2 16 9 E 1009,2 20 0 0,0
06.08.2020 02:00:00 28,4 7,0 5 3 16 9 WNW 1009,2 20 0 -
06.08.2020 01:00:00 28,9 7,4 4 2 26 14 SSW 1009,3 20 0 0,0
06.08.2020 00:00:00 30,8 4,5 3 1 12 6 NNE 1008,4 20 0 0,0
05.08.2020 23:00:00 32,8 4,5 5 3 9 5 NE 1008,1 20 0 0,0
05.08.2020 22:00:00 34,0 4,6 5 3 8 5 NE 1007,6 20 0 0,0
05.08.2020 21:00:00 38,0 4,8 3 1 11 6 WNW 1006,8 20 0 0,0
05.08.2020 20:00:00 39,2 4,6 6 3 13 7 WSW 1006,6 20 0 -
05.08.2020 19:00:00 39,5 3,6 7 4 24 13 WNW 1006,7 20 0 0,0
05.08.2020 18:00:00 39,7 5,0 11 6 18 10 SW 1007,0 20 0 0,0
05.08.2020 17:00:00 39,3 5,8 8 4 21 11 SW 1007,5 20 0 0,0
05.08.2020 16:00:00 37,3 5,3 14 8 29 15 W 1008,4 20 0 0,0
05.08.2020 15:00:00 37,6 6,5 8 5 21 11 SW 1008,8 20 0 0,0
05.08.2020 14:00:00 36,4 6,5 9 5 22 12 E 1009,4 20 0 -
05.08.2020 13:00:00 34,3 8,1 14 8 28 15 E 1010,2 20 0 0,0
05.08.2020 12:00:00 32,6 8,8 14 7 29 16 E 1010,7 20 0 0,0
05.08.2020 11:00:00 30,5 7,7 16 9 28 15 E 1010,9 20 0 0,0
05.08.2020 10:00:00 26,8 9,2 3 2 7 4 WSW 1011,6 20 0 0,0
05.08.2020 09:00:00 24,8 7,8 2 1 7 4 E 1011,4 20 0 0,0
05.08.2020 08:00:00 21,2 7,4 1 1 6 3 E 1011,5 20 0 -
05.08.2020 07:00:00 22,1 6,4 3 1 11 6 E 1011,1 20 0 0,0
05.08.2020 06:00:00 24,1 5,9 2 1 5 3 E 1010,7 20 0 0,0
05.08.2020 05:00:00 24,3 5,6 5 3 10 5 NW 1010,6 20 0 0,0
05.08.2020 04:00:00 25,1 4,8 5 3 7 4 ENE 1010,8 20 0 0,0
05.08.2020 03:00:00 25,1 5,3 5 3 10 6 E 1011,0 20 0 0,0
05.08.2020 02:00:00 27,3 5,0 5 3 32 17 N 1010,9 20 0 -
05.08.2020 01:00:00 29,7 5,0 15 8 29 15 NNE 1010,3 20 0 0,0
05.08.2020 00:00:00 29,6 6,2 10 5 24 13 N 1010,3 20 0 0,0
04.08.2020 23:00:00 31,5 5,8 8 4 16 9 N 1009,9 20 0 0,0
04.08.2020 22:00:00 32,1 5,6 3 1 7 4 NNE 1009,4 20 0 0,0
04.08.2020 21:00:00 34,8 7,0 5 3 13 7 ESE 1008,8 20 0 0,0
04.08.2020 20:00:00 36,5 4,6 6 3 11 6 E 1008,6 20 0 -
04.08.2020 19:00:00 36,9 7,0 3 2 23 13 ENE 1008,9 20 0 0,0
04.08.2020 18:00:00 36,9 7,0 8 5 21 12 S 1009,4 20 0 0,0
04.08.2020 17:00:00 36,1 7,1 8 4 21 11 SW 1010,0 20 0 0,0
04.08.2020 16:00:00 35,4 8,3 10 5 24 13 SW 1010,7 20 0 0,0
04.08.2020 15:00:00 34,9 7,8 9 5 27 15 SE 1011,3 20 0 0,0
04.08.2020 14:00:00 33,5 8,9 12 7 31 17 E 1012,1 20 0 -
04.08.2020 13:00:00 32,4 8,7 16 9 35 19 E 1012,7 20 0 0,0
04.08.2020 12:00:00 30,9 9,2 19 10 33 18 E 1012,9 20 0 0,0
04.08.2020 11:00:00 29,1 8,3 20 11 41 22 E 1013,1 20 0 0,0
04.08.2020 10:00:00 27,5 8,4 19 11 35 19 E 1013,4 20 0 0,0
04.08.2020 09:00:00 24,1 11,8 4 2 23 13 ENE 1013,6 20 0 0,0
04.08.2020 08:00:00 22,4 11,4 10 6 29 15 NE 1013,4 20 0 -
04.08.2020 07:00:00 22,7 12,3 11 6 29 16 NNE 1013,2 20 0 0,0
04.08.2020 06:00:00 22,9 12,2 8 5 22 12 N 1013,0 20 0 0,0
04.08.2020 05:00:00 23,8 12,4 8 5 27 14 N 1012,8 20 0 0,0
04.08.2020 04:00:00 24,3 12,2 13 7 27 15 N 1012,8 20 0 0,0
04.08.2020 03:00:00 23,7 13,0 14 8 24 13 NNW 1013,1 20 0 0,0
04.08.2020 02:00:00 24,5 13,4 7 4 21 11 NNW 1013,2 20 0 -
04.08.2020 01:00:00 25,5 13,7 11 6 29 16 NNW 1012,9 20 0 0,0
04.08.2020 00:00:00 26,7 13,5 17 9 31 17 NNW 1012,4 20 0 0,0
03.08.2020 23:00:00 27,4 10,2 16 9 29 16 NNW 1012,0 20 0 0,0
03.08.2020 22:00:00 28,9 6,8 11 6 27 15 NNW 1011,1 20 0 0,0

tt = temperature
td = dewpoint
ff = wind speed
fx = gusts
dd = wind direction
ppp = reduced air pressure
vv = visibility
sd = sunshine duration
rr = precipitation

Next stations